FLOCK 2E'-18

Last updated on Thu Nov 08 2018 00:02:06 GMT+0000 (Coordinated Universal Time)

1 41769U 98067KM 18311.16413517 .17547955 12625-4 58790-3 0 9994 2 41769 51.5984 314.3630 0006556 347.8382 12.0272 16.44264389122712

Satellite not in orbit